Boscobel, WI

1:38 AM CST on February 22, 2017 (GMT -0600)
Boscobel

Weather History for KOVS - February, 2013

Change the Weather History Date:

Friday, February 22, 2013

  Actual Average (KPDC) Record (KPDC)
Temperature  
Mean Temperature 27 °F -  
Max Temperature 30 °F 38 °F 64 °F (1984)
Min Temperature 24 °F 18 °F -11 °F (1978)
Degree Days  
Heating Degree Days 38    
Moisture  
Dew Point 23 °F    
Average Humidity 84    
Maximum Humidity 93    
Minimum Humidity 69    
Precipitation  
Precipitation 0.17 in - - ()
Sea Level Pressure  
Sea Level Pressure 29.87 in    
Wind  
Wind Speed 7 mph (NE)    
Max Wind Speed 14 mph    
Max Gust Speed 22 mph    
Visibility 4 miles    
Events Fog , Snow    
Averages and records for this station are not official NWS values.
T = Trace of Precipitation, MM = Missing Value Source: NWS Daily Summary

Daily Weather History Graph

Daily Weather History Graph

Search for Another Location

Airport or City:

Trip Planner

Search our weather history database for the weather conditions in past years. The results will help you decide how hot, cold, wet, or windy it might be!

Date:

Astronomy

Feb. 22, 2013 Rise Set
Actual Time 6:49 AM CST 5:43 PM CST
Civil Twilight 6:20 AM CST 6:12 PM CST
Nautical Twilight 5:47 AM CST 6:45 PM CST
Astronomical Twilight 5:14 AM CST 7:18 PM CST
Moon 2:51 PM CST 4:38 AM CST
Length of Visible Light 11h 51m
Length of Day
10h 53m
Waxing Gibbous, 90% of the Moon is Illuminated
Feb 22
Waxing Gibbous
Feb 25
Full
Mar 4
Last Quarter
Mar 11
New
Mar 19
First Quarter

Hourly Weather History & Observations

Time (CST) Temp. Windchill Dew Point Humidity Pressure Visibility Wind Dir Wind Speed Gust Speed Precip Events Conditions
12:42 AM 26.6 °F 18.2 °F 23.0 °F 86% 29.95 in 1.2 mi ENE 8.1 mph 20.7 mph 0.06 in Snow Light Snow
12:51 AM 26.6 °F 16.8 °F 23.0 °F 86% 29.95 in 1.5 mi ENE 10.4 mph 20.7 mph 0.06 in Snow Light Snow
12:53 AM 26.1 °F 16.2 °F 23.0 °F 88% 29.99 in 1.5 mi East 10.4 mph 20.7 mph 0.06 in Snow Light Snow
1:17 AM 26.6 °F 15.2 °F 23.0 °F 86% 29.94 in 1.0 mi ENE 13.8 mph 21.9 mph 0.01 in Snow Light Snow
1:31 AM 26.6 °F 17.5 °F 21.2 °F 80% 29.94 in 1.2 mi ENE 9.2 mph 17.3 mph 0.01 in Snow Light Snow
1:40 AM 26.6 °F 19.1 °F 21.2 °F 80% 29.94 in 1.0 mi ENE 6.9 mph 16.1 mph 0.02 in Snow Light Snow
1:53 AM 26.1 °F 17.6 °F 21.9 °F 84% 29.96 in 1.2 mi ENE 8.1 mph 18.4 mph 0.02 in Snow Light Snow
2:18 AM 24.8 °F 15.3 °F 21.2 °F 86% 29.92 in 0.8 mi ENE 9.2 mph - 0.01 in Snow Light Snow
2:22 AM 24.8 °F 16.9 °F 21.2 °F 86% 29.92 in 1.0 mi ENE 6.9 mph - 0.01 in Snow Light Snow
2:36 AM 24.8 °F 16.1 °F 21.2 °F 86% 29.91 in 0.5 mi ENE 8.1 mph - 0.02 in Fog , Snow Snow
2:44 AM 24.8 °F 15.3 °F 21.2 °F 86% 29.91 in 1.2 mi ENE 9.2 mph - 0.02 in Snow Light Snow
2:53 AM 25.0 °F 15.5 °F 21.9 °F 88% 29.94 in 1.5 mi East 9.2 mph - 0.03 in Snow Light Snow
3:03 AM 24.8 °F 14.0 °F 21.2 °F 86% 29.90 in 0.8 mi ENE 11.5 mph 16.1 mph 0.00 in Snow Light Snow
3:11 AM 24.8 °F 16.9 °F 21.2 °F 86% 29.89 in 0.5 mi ENE 6.9 mph 17.3 mph 0.01 in Fog , Snow Snow
3:23 AM 24.8 °F 16.1 °F 21.2 °F 86% 29.89 in 0.5 mi ENE 8.1 mph - 0.02 in Fog , Snow Snow
3:37 AM 24.8 °F 15.3 °F 21.2 °F 86% 29.88 in 1.0 mi NE 9.2 mph - 0.03 in Snow Light Snow
3:40 AM 24.8 °F 14.6 °F 21.2 °F 86% 29.88 in 1.2 mi ENE 10.4 mph 16.1 mph 0.03 in Snow Light Snow
3:53 AM 25.0 °F 16.3 °F 21.9 °F 88% 29.91 in 2.0 mi ENE 8.1 mph - 0.03 in Snow Light Snow
4:04 AM 24.8 °F 15.3 °F 21.2 °F 86% 29.86 in 2.5 mi ENE 9.2 mph 17.3 mph 0.00 in Snow Light Snow
4:20 AM 24.8 °F 16.1 °F 21.2 °F 86% 29.86 in 2.5 mi ENE 8.1 mph - 0.00 in Snow Light Snow
4:25 AM 24.8 °F 16.1 °F 21.2 °F 86% 29.86 in 3.0 mi ENE 8.1 mph - 0.00 in Snow Light Snow
4:53 AM 25.0 °F 16.3 °F 21.0 °F 85% 29.89 in 9.0 mi ENE 8.1 mph - 0.00 in   Overcast
5:09 AM 26.6 °F 18.2 °F 21.2 °F 80% 29.85 in 10.0 mi ENE 8.1 mph - N/A   Overcast
5:53 AM 26.1 °F 18.4 °F 21.0 °F 81% 29.88 in 9.0 mi ENE 6.9 mph - N/A   Overcast
6:08 AM 24.8 °F 19.1 °F 21.2 °F 86% 29.84 in 8.0 mi NE 4.6 mph - N/A   Overcast
6:53 AM 25.0 °F 19.3 °F 21.9 °F 88% 29.86 in 4.0 mi NE 4.6 mph - N/A   Overcast
7:15 AM 24.8 °F 19.1 °F 23.0 °F 93% 29.83 in 2.0 mi NE 4.6 mph - N/A   Overcast
7:27 AM 24.8 °F 20.5 °F 23.0 °F 93% 29.83 in 1.8 mi ENE 3.5 mph - N/A   Overcast
7:53 AM 25.0 °F 20.7 °F 23.0 °F 92% 29.86 in 1.8 mi NE 3.5 mph - N/A   Overcast
8:51 AM 26.6 °F 21.2 °F 24.8 °F 93% 29.83 in 1.2 mi NE 4.6 mph - 0.01 in Snow Light Snow
8:53 AM 26.1 °F 20.5 °F 24.1 °F 92% 29.86 in 1.2 mi Variable 4.6 mph - 0.01 in Snow Light Snow
9:11 AM 26.6 °F 22.6 °F 24.8 °F 93% 29.83 in 1.2 mi NE 3.5 mph - 0.00 in Snow Light Snow
9:38 AM 26.6 °F 22.6 °F 24.8 °F 93% 29.83 in 1.0 mi NE 3.5 mph - 0.00 in Snow Light Snow
9:42 AM 26.6 °F - 24.8 °F 93% 29.83 in 0.8 mi Calm Calm - 0.00 in Snow Light Snow
9:49 AM 26.6 °F 22.6 °F 24.8 °F 93% 29.83 in 0.8 mi NE 3.5 mph - 0.01 in Snow Light Snow
9:53 AM 27.0 °F 23.0 °F 24.1 °F 89% 29.86 in 0.8 mi NE 3.5 mph - 0.01 in Snow Light Snow
10:18 AM 26.6 °F 22.6 °F 24.8 °F 93% 29.83 in 1.0 mi NE 3.5 mph - 0.00 in Snow Light Snow
10:36 AM 28.4 °F 24.6 °F 24.8 °F 86% 29.83 in 1.2 mi NE 3.5 mph - 0.00 in Snow Light Snow
10:51 AM 28.4 °F 24.6 °F 24.8 °F 86% 29.83 in 2.0 mi NE 3.5 mph - 0.00 in Snow Light Snow
10:52 AM 28.0 °F 24.2 °F 24.1 °F 85% 29.86 in 2.0 mi NE 3.5 mph - 0.00 in Snow Light Snow
10:59 AM 28.4 °F 23.3 °F 24.8 °F 86% 29.83 in 2.5 mi NE 4.6 mph - 0.00 in Snow Light Snow
11:30 AM 28.4 °F 24.6 °F 24.8 °F 86% 29.81 in 3.0 mi ENE 3.5 mph - 0.00 in Snow Light Snow
11:40 AM 28.4 °F 23.3 °F 24.8 °F 86% 29.80 in 2.0 mi NE 4.6 mph - 0.00 in Snow Light Snow
11:53 AM 30.0 °F 25.2 °F 25.0 °F 82% 29.83 in 1.5 mi Variable 4.6 mph - 0.00 in Snow Light Snow
12:12 PM 30.2 °F - 24.8 °F 80% 29.81 in 2.5 mi Calm Calm - 0.00 in Snow Light Snow
12:41 PM 30.2 °F - 26.6 °F 86% 29.82 in 1.2 mi Calm Calm - 0.00 in Snow Light Snow
12:53 PM 30.0 °F - 26.1 °F 85% 29.84 in 1.5 mi Calm Calm - 0.01 in Snow Light Snow
1:46 PM 30.2 °F - 26.6 °F 86% 29.82 in 2.0 mi Calm Calm - 0.00 in Snow Light Snow
1:53 PM 30.0 °F - 26.1 °F 85% 29.84 in 1.8 mi Calm Calm - 0.00 in Snow Light Snow
2:00 PM 30.2 °F - 26.6 °F 86% 29.82 in 1.8 mi Calm Calm - 0.00 in Snow Light Snow
2:07 PM 30.2 °F 26.7 °F 26.6 °F 86% 29.82 in 2.5 mi SSW 3.5 mph - 0.00 in Snow Light Snow
2:19 PM 30.2 °F 26.7 °F 26.6 °F 86% 29.82 in 4.0 mi SSW 3.5 mph - 0.00 in Snow Light Snow
2:53 PM 30.9 °F 24.3 °F 24.1 °F 76% 29.84 in 9.0 mi NW 6.9 mph - 0.00 in   Overcast
3:13 PM 30.2 °F 24.3 °F 23.0 °F 75% 29.81 in 10.0 mi WNW 5.8 mph - N/A   Overcast
3:29 PM 30.2 °F 26.7 °F 23.0 °F 75% 29.81 in 10.0 mi West 3.5 mph - N/A   Overcast
3:53 PM 30.9 °F 25.2 °F 23.0 °F 72% 29.85 in 10.0 mi WNW 5.8 mph - N/A   Overcast
4:53 PM 30.0 °F 24.1 °F 21.9 °F 72% 29.87 in 10.0 mi West 5.8 mph - N/A   Overcast
5:53 PM 30.0 °F - 21.0 °F 69% 29.87 in 10.0 mi Calm Calm - N/A   Overcast
6:35 PM 30.2 °F 26.7 °F 21.2 °F 69% 29.85 in 10.0 mi West 3.5 mph - N/A   Overcast
6:53 PM 30.0 °F 25.2 °F 21.0 °F 69% 29.89 in 10.0 mi West 4.6 mph - N/A   Overcast
7:53 PM 28.9 °F 23.9 °F 21.0 °F 72% 29.91 in 10.0 mi WSW 4.6 mph - N/A   Overcast
8:53 PM 28.9 °F 22.8 °F 19.9 °F 69% 29.91 in 10.0 mi West 5.8 mph - N/A   Overcast
9:53 PM 28.0 °F 21.7 °F 21.0 °F 75% 29.91 in 10.0 mi Variable 5.8 mph - N/A   Overcast
10:53 PM 27.0 °F 19.5 °F 19.9 °F 75% 29.91 in 10.0 mi WSW 6.9 mph - N/A   Overcast
11:53 PM 26.1 °F 20.5 °F 19.9 °F 78% 29.91 in 10.0 mi WSW 4.6 mph - N/A   Overcast